This demonstration page uses our WeatherBlox Daily Observations layout. Learn more.

Hourly Observations for August 1, 2019

Temp ( °F °C ) Dew Point ( °F °C ) Humidity (%) Winds ( mph kmh ) Pressure ( in mb ) Visibility ( mi km ) Precip ( " mm )
12:15 am 00:15 Clear 69 20.5 66 18.9 91 91 E 8 13 29.94 1014 10 16.09344 0 0
12:35 am 00:35 Clear 69 20.5 66 18.8 90 90 E 7 11 29.94 1014 10 16.09344 0 0
12:55 am 00:55 Clear 68 20.1 66 18.7 92 92 ENE 7 11 29.97 1015 10 16.09344 0 0
1:15 am 01:15 Clear 67 19.7 65 18.6 93 93 ENE 6 9 29.97 1015 10 16.09344 0 0
1:35 am 01:35 Clear 67 19.5 65 18.6 95 95 NE 6 9 29.97 1015 10 16.09344 0 0
1:55 am 01:55 Clear 66 19.1 65 18.5 96 96 ENE 7 11 29.97 1015 10 16.09344 0 0
2:15 am 02:15 Clear 66 19 65 18.5 97 97 ENE 8 13 29.97 1015 10 16.09344 0 0
2:35 am 02:35 Clear 66 18.9 65 18.5 98 98 ENE 7 11 29.97 1015 10 16.09344 0 0
2:55 am 02:55 Clear 66 18.7 65 18.3 98 98 E 8 13 29.97 1015 10 16.09344 0 0
3:15 am 03:15 Clear 65 18.5 65 18.2 98 98 E 6 9 29.97 1015 10 16.09344 0 0
3:35 am 03:35 Clear 65 18.3 64 18 98 98 E 7 11 29.97 1015 10 16.09344 0 0
3:55 am 03:55 Clear 65 18.2 64 18 99 99 ENE 6 9 29.97 1015 10 16.09344 0 0
4:15 am 04:15 Clear 65 18.1 64 17.9 99 99 ENE 6 9 29.97 1015 7 11.265408 0 0
4:35 am 04:35 Mostly Cloudy with Mist and Fog 64 18 64 18 100 100 ENE 6 9 29.97 1015 5 8.04672 0 0
4:55 am 04:55 Cloudy with Mist and Fog 65 18.2 65 18.1 99 99 ENE 8 13 29.97 1015 5 8.04672 0 0
5:15 am 05:15 Cloudy with Mist and Fog 65 18.5 65 18.2 98 98 ENE 8 13 29.97 1015 5 8.04672 0 0
5:35 am 05:35 Cloudy with Mist and Fog 66 18.7 65 18.4 98 98 ENE 6 9 29.97 1015 5 8.04672 0 0
5:55 am 05:55 Cloudy 66 18.7 65 18.3 98 98 ENE 7 11 30 1016 7 11.265408 0 0
6:15 am 06:15 Cloudy 66 18.7 65 18.3 98 98 E 9 15 30 1016 7 11.265408 0 0
6:35 am 06:35 Cloudy with Mist and Fog 65 18.6 65 18.2 98 98 ENE 9 15 30 1016 5 8.04672 0 0
6:55 am 06:55 Cloudy with Mist and Fog 65 18.5 65 18.1 98 98 ENE 8 13 30 1016 4 6.437376 0 0
7:15 am 07:15 Cloudy with Mist and Fog 65 18.5 65 18.1 98 98 ENE 10 17 30 1016 3 4.828032 0 0
7:35 am 07:35 Cloudy with Mist and Fog 65 18.2 65 18.2 100 100 E 12 19 30 1016 1 1.609344 0 0
7:55 am 07:55 Cloudy with Mist and Fog 65 18.2 65 18.2 100 100 E 10 17 30 1016 1 1.609344 0 0
8:15 am 08:15 Cloudy with Mist and Fog 65 18.2 65 18.2 100 100 E 10 17 30 1016 1 1.609344 0 0
8:35 am 08:35 Cloudy with Mist and Fog 65 18.2 65 18.2 100 100 E 12 19 30 1016 1 1.609344 0 0
8:55 am 08:55 Cloudy with Mist and Fog 65 18.5 65 18.5 100 100 E 12 19 30.03 1017 1 1.609344 0 0
9:15 am 09:15 Cloudy with Mist and Fog 66 18.7 66 18.7 100 100 E 12 19 30 1016 1.25 2.01168 0 0
9:35 am 09:35 Cloudy with Mist and Fog 66 19 66 18.9 99 99 E 12 19 30.03 1017 1.25 2.01168 0 0
9:55 am 09:55 Cloudy with Mist and Fog 66 19 66 18.9 99 99 E 10 17 30.03 1017 1.25 2.01168 0 0
10:15 am 10:15 Cloudy with Mist and Fog 67 19.2 66 19.1 99 99 E 10 17 30.03 1017 1.5 2.414016 0 0
10:35 am 10:35 Cloudy with Mist and Fog 67 19.5 67 19.2 98 98 ESE 9 15 30.03 1017 2.5 4.02336 0 0
10:55 am 10:55 Cloudy with Mist and Fog 67 19.7 67 19.3 98 98 ESE 9 15 30.03 1017 3 4.828032 0 0
11:15 am 11:15 Cloudy with Mist and Fog 68 19.8 67 19.3 97 97 ESE 7 11 30.03 1017 4 6.437376 0 0
11:35 am 11:35 Cloudy with Mist and Fog 68 20 67 19.5 97 97 E 10 17 30.03 1017 4 6.437376 0 0
11:55 am 11:55 Cloudy with Mist and Fog 68 20 67 19.5 97 97 ESE 9 15 30.03 1017 4 6.437376 0 0
12:15 pm 12:15 Cloudy with Mist and Fog 68 20.1 67 19.5 96 96 ESE 9 15 30.03 1017 4 6.437376 0 0
12:35 pm 12:35 Cloudy with Mist and Fog 69 20.6 67 19.7 95 95 ESE 8 13 30.03 1017 5 8.04672 0 0
12:55 pm 12:55 Cloudy with Mist and Fog 69 20.5 67 19.7 95 95 ESE 8 13 30.03 1017 5 8.04672 0 0
1:15 pm 13:15 Cloudy 70 21.2 68 19.8 92 92 ESE 7 11 30 1016 7 11.265408 0 0
1:35 pm 13:35 Cloudy 70 21.1 67 19.7 92 92 ESE 9 15 30 1016 7 11.265408 0 0
1:55 pm 13:55 Cloudy 71 21.5 67 19.7 90 90 ESE 6 9 30 1016 10 16.09344 0 0
2:15 pm 14:15 Cloudy 71 21.8 68 19.8 88 88 ESE 6 9 30 1016 10 16.09344 0 0
2:35 pm 14:35 Cloudy 73 22.5 68 20 86 86 E 6 9 30 1016 10 16.09344 0 0
2:55 pm 14:55 Cloudy 74 23.2 68 20.1 83 83 E 7 11 30 1016 10 16.09344 0 0
3:15 pm 15:15 Cloudy 75 23.9 68 20.2 80 80 E 6 9 30 1016 10 16.09344 0 0
3:35 pm 15:35 Cloudy 77 24.8 69 20.4 77 77 ESE 8 13 29.94 1014 10 16.09344 0 0
3:55 pm 15:55 Cloudy 76 24.7 69 20.3 77 77 ESE 9 15 29.94 1014 10 16.09344 0 0
4:15 pm 16:15 Cloudy 77 25.2 69 20.6 76 76 ESE 12 19 29.94 1014 10 16.09344 0 0
4:35 pm 16:35 Cloudy 77 25 69 20.5 76 76 ESE 9 15 29.94 1014 10 16.09344 0 0
4:55 pm 16:55 Cloudy 78 25.3 69 20.7 76 76 E 10 17 29.94 1014 10 16.09344 0 0
5:15 pm 17:15 Cloudy 78 25.6 69 20.6 74 74 E 10 17 29.94 1014 10 16.09344 0 0
5:35 pm 17:35 Cloudy 79 26.2 70 21 73 73 E 10 17 29.91 1013 10 16.09344 0 0
5:55 pm 17:55 Cloudy 78 25.7 70 20.9 75 75 ESE 10 17 29.91 1013 10 16.09344 0 0
6:15 pm 18:15 Cloudy 79 26.2 70 21.1 74 74 E 12 19 29.91 1013 10 16.09344 0 0
6:35 pm 18:35 Cloudy 78 25.7 70 21 75 75 E 13 20 29.91 1013 10 16.09344 0 0
6:55 pm 18:55 Cloudy 78 25.5 69 20.8 75 75 ESE 9 15 29.91 1013 10 16.09344 0 0
7:15 pm 19:15 Cloudy 77 25.2 70 20.9 77 77 E 10 17 29.91 1013 10 16.09344 0 0
7:35 pm 19:35 Cloudy 77 25 70 21 79 79 E 10 17 29.91 1013 10 16.09344 0 0
7:55 pm 19:55 Mostly Cloudy 77 24.8 70 21.1 80 80 E 9 15 29.91 1013 10 16.09344 0 0
8:15 pm 20:15 Cloudy 76 24.5 70 21.2 82 82 E 9 15 29.91 1013 10 16.09344 0 0
8:35 pm 20:35 Cloudy 76 24.3 70 21.1 82 82 E 8 13 29.91 1013 10 16.09344 0 0
8:55 pm 20:55 Cloudy 75 24 70 21.1 84 84 E 9 15 29.94 1014 10 16.09344 0 0
9:15 pm 21:15 Cloudy 75 24 70 21.1 84 84 E 7 11 29.94 1014 10 16.09344 0 0
9:35 pm 21:35 Cloudy 75 24 70 21 83 83 E 8 13 29.94 1014 10 16.09344 0 0
9:55 pm 21:55 Cloudy 74 23.6 70 21 85 85 E 5 7 29.97 1015 10 16.09344 0 0
10:15 pm 22:15 Cloudy 74 23.5 70 21 86 86 E 7 11 30 1016 10 16.09344 0 0
10:35 pm 22:35 Cloudy 74 23.5 70 21 86 86 ESE 10 17 30 1016 10 16.09344 0 0
10:55 pm 22:55 Cloudy 74 23.3 70 21.2 88 88 ESE 12 19 30 1016 10 16.09344 0 0
11:15 pm 23:15 Mostly Cloudy 74 23.1 70 21.2 89 89 ESE 10 17 29.97 1015 10 16.09344 0 0
11:35 pm 23:35 Mostly Cloudy 73 23 70 21.1 89 89 ESE 12 19 30 1016 10 16.09344 0 0
11:55 pm 23:55 Cloudy 73 22.9 70 21 89 89 ESE 10 17 30 1016 10 16.09344 0 0

Powered by AerisWeather